Year,Month,Day,Hour,Minute,Value (Times are PST for temperature in C)
2015,05,21,00,00,15.70
2015,05,21,00,01,15.70
2015,05,21,00,02,15.70
2015,05,21,00,03,15.70
2015,05,21,00,04,15.70
2015,05,21,00,05,15.70
2015,05,21,00,06,15.80
2015,05,21,00,07,15.80
2015,05,21,00,08,15.90
2015,05,21,00,09,15.90
2015,05,21,00,10,15.90
2015,05,21,00,11,15.80
2015,05,21,00,12,15.80
2015,05,21,00,13,15.80
2015,05,21,00,14,15.70
2015,05,21,00,15,15.70
2015,05,21,00,16,15.70
2015,05,21,00,17,15.60
2015,05,21,00,18,15.60
2015,05,21,00,19,15.60
2015,05,21,00,20,15.50
2015,05,21,00,21,15.50
2015,05,21,00,22,15.50
2015,05,21,00,23,15.40
2015,05,21,00,24,15.40
2015,05,21,00,25,15.30
2015,05,21,00,26,15.30
2015,05,21,00,27,15.30
2015,05,21,00,28,15.20
2015,05,21,00,29,15.20
2015,05,21,00,30,15.10
2015,05,21,00,31,15.10
2015,05,21,00,32,15.10
2015,05,21,00,33,15.00
2015,05,21,00,34,15.00
2015,05,21,00,35,14.90
2015,05,21,00,36,14.90
2015,05,21,00,37,14.90
2015,05,21,00,38,14.90
2015,05,21,00,39,14.80
2015,05,21,00,40,14.80
2015,05,21,00,41,14.80
2015,05,21,00,42,14.80
2015,05,21,00,43,14.80
2015,05,21,00,44,14.70
2015,05,21,00,45,14.70
2015,05,21,00,46,14.70
2015,05,21,00,47,14.70
2015,05,21,00,48,14.70
2015,05,21,00,49,14.70
2015,05,21,00,50,14.70
2015,05,21,00,51,14.70
2015,05,21,00,52,14.70
2015,05,21,00,53,14.70
2015,05,21,00,54,14.70
2015,05,21,00,55,14.80
2015,05,21,00,56,14.90
2015,05,21,00,57,14.90
2015,05,21,00,58,15.00
2015,05,21,00,59,15.10
2015,05,21,01,00,15.10
2015,05,21,01,01,15.10
2015,05,21,01,02,15.20
2015,05,21,01,03,15.20
2015,05,21,01,04,15.20
2015,05,21,01,05,15.20
2015,05,21,01,06,15.20
2015,05,21,01,07,15.30
2015,05,21,01,08,15.30
2015,05,21,01,09,15.30
2015,05,21,01,10,15.30
2015,05,21,01,11,15.30
2015,05,21,01,12,15.30
2015,05,21,01,13,15.30
2015,05,21,01,14,15.30
2015,05,21,01,15,15.30
2015,05,21,01,16,15.30
2015,05,21,01,17,15.30
2015,05,21,01,18,15.30
2015,05,21,01,19,15.30
2015,05,21,01,20,15.30
2015,05,21,01,21,15.20
2015,05,21,01,22,15.20
2015,05,21,01,23,15.20
2015,05,21,01,24,15.20
2015,05,21,01,25,15.20
2015,05,21,01,26,15.20
2015,05,21,01,27,15.10
2015,05,21,01,28,15.10
2015,05,21,01,29,15.10
2015,05,21,01,30,15.10
2015,05,21,01,31,15.10
2015,05,21,01,32,15.10
2015,05,21,01,33,15.00
2015,05,21,01,34,15.00
2015,05,21,01,35,15.00
2015,05,21,01,36,14.90
2015,05,21,01,37,14.90
2015,05,21,01,38,14.90
2015,05,21,01,39,14.90
2015,05,21,01,40,14.80
2015,05,21,01,41,14.80
2015,05,21,01,42,14.80
2015,05,21,01,43,14.80
2015,05,21,01,44,14.70
2015,05,21,01,45,14.70
2015,05,21,01,46,14.70
2015,05,21,01,47,14.70
2015,05,21,01,48,14.70
2015,05,21,01,49,14.60
2015,05,21,01,50,14.60
2015,05,21,01,51,14.60
2015,05,21,01,52,14.60
2015,05,21,01,53,14.60
2015,05,21,01,54,14.50
2015,05,21,01,55,14.50
2015,05,21,01,56,14.50
2015,05,21,01,57,14.40
2015,05,21,01,58,14.40
2015,05,21,01,59,14.40
2015,05,21,02,00,14.40
2015,05,21,02,01,14.40
2015,05,21,02,02,14.40
2015,05,21,02,03,14.40
2015,05,21,02,04,14.30
2015,05,21,02,05,14.30
2015,05,21,02,06,14.30
2015,05,21,02,07,14.30
2015,05,21,02,08,14.30
2015,05,21,02,09,14.30
2015,05,21,02,10,14.30
2015,05,21,02,11,14.30
2015,05,21,02,12,14.30
2015,05,21,02,13,14.30
2015,05,21,02,14,14.30
2015,05,21,02,15,14.30
2015,05,21,02,16,14.30
2015,05,21,02,17,14.30
2015,05,21,02,18,14.30
2015,05,21,02,19,14.20
2015,05,21,02,20,14.20
2015,05,21,02,21,14.20
2015,05,21,02,22,14.20
2015,05,21,02,23,14.20
2015,05,21,02,24,14.20
2015,05,21,02,25,14.20
2015,05,21,02,26,14.20
2015,05,21,02,27,14.20
2015,05,21,02,28,14.20
2015,05,21,02,29,14.10
2015,05,21,02,30,14.10
2015,05,21,02,31,14.10
2015,05,21,02,32,14.10
2015,05,21,02,33,14.10
2015,05,21,02,34,14.00
2015,05,21,02,35,14.00
2015,05,21,02,36,13.90
2015,05,21,02,37,13.90
2015,05,21,02,38,13.90
2015,05,21,02,39,13.90
2015,05,21,02,40,13.90
2015,05,21,02,41,13.90
2015,05,21,02,42,13.90
2015,05,21,02,43,13.90
2015,05,21,02,44,13.80
2015,05,21,02,45,13.80
2015,05,21,02,46,13.90
2015,05,21,02,47,13.90
2015,05,21,02,48,13.80
2015,05,21,02,49,13.80
2015,05,21,02,50,13.80
2015,05,21,02,51,13.80
2015,05,21,02,52,13.80
2015,05,21,02,53,13.80
2015,05,21,02,54,13.80
2015,05,21,02,55,13.80
2015,05,21,02,56,13.80
2015,05,21,02,57,13.80
2015,05,21,02,58,13.80
2015,05,21,02,59,13.80
2015,05,21,03,00,13.80
2015,05,21,03,01,13.80
2015,05,21,03,02,13.80
2015,05,21,04,02,13.10
2015,05,21,04,03,13.00
2015,05,21,04,04,13.00
2015,05,21,04,05,13.00
2015,05,21,04,06,13.00
2015,05,21,04,07,13.00
2015,05,21,04,08,13.00
2015,05,21,04,09,13.00
2015,05,21,04,10,12.90
2015,05,21,04,11,12.90
2015,05,21,04,12,12.90
2015,05,21,04,13,12.90
2015,05,21,04,14,12.90
2015,05,21,04,15,12.90
2015,05,21,04,16,12.90
2015,05,21,04,17,12.90
2015,05,21,04,18,12.90
2015,05,21,04,19,12.90
2015,05,21,04,20,12.90
2015,05,21,04,21,12.80
2015,05,21,04,22,12.80
2015,05,21,04,23,12.80
2015,05,21,04,24,12.80
2015,05,21,04,25,12.80
2015,05,21,04,26,12.80
2015,05,21,04,27,12.80
2015,05,21,04,28,12.80
2015,05,21,04,29,12.80
2015,05,21,04,30,12.80
2015,05,21,04,31,12.70
2015,05,21,04,32,12.70
2015,05,21,04,33,12.70
2015,05,21,04,34,12.70
2015,05,21,04,35,12.70
2015,05,21,04,36,12.70
2015,05,21,04,37,12.70
2015,05,21,04,38,12.70
2015,05,21,04,39,12.60
2015,05,21,04,40,12.60
2015,05,21,04,41,12.60
2015,05,21,04,42,12.60
2015,05,21,04,43,12.60
2015,05,21,04,44,12.60
2015,05,21,04,45,12.60
2015,05,21,04,46,12.60
2015,05,21,04,47,12.50
2015,05,21,04,48,12.50
2015,05,21,04,49,12.50
2015,05,21,04,50,12.50
2015,05,21,04,51,12.50
2015,05,21,04,52,12.50
2015,05,21,04,53,12.50
2015,05,21,04,54,12.50
2015,05,21,04,55,12.40
2015,05,21,04,56,12.40
2015,05,21,04,57,12.40
2015,05,21,04,58,12.40
2015,05,21,04,59,12.40
2015,05,21,05,00,12.40
2015,05,21,05,01,12.40
2015,05,21,05,02,12.40
2015,05,21,05,03,12.40
2015,05,21,05,04,12.40
2015,05,21,05,05,12.40
2015,05,21,05,06,12.30
2015,05,21,05,07,12.30
2015,05,21,05,08,12.30
2015,05,21,05,09,12.30
2015,05,21,05,10,12.30
2015,05,21,05,11,12.30
2015,05,21,05,12,12.30
2015,05,21,05,13,12.30
2015,05,21,05,14,12.30
2015,05,21,05,15,12.30
2015,05,21,05,16,12.20
2015,05,21,05,17,12.20
2015,05,21,05,18,12.20
2015,05,21,05,19,12.20
2015,05,21,05,20,12.20
2015,05,21,05,21,12.20
2015,05,21,05,22,12.20
2015,05,21,05,23,12.20
2015,05,21,05,24,12.10
2015,05,21,05,25,12.10
2015,05,21,05,26,12.10
2015,05,21,05,27,12.10
2015,05,21,05,28,12.10
2015,05,21,05,29,12.10
2015,05,21,05,30,12.10
2015,05,21,05,31,12.00
2015,05,21,05,32,12.00
2015,05,21,05,33,12.00
2015,05,21,05,34,12.00
2015,05,21,05,35,12.00
2015,05,21,05,36,12.00
2015,05,21,05,37,11.90
2015,05,21,05,38,11.90
2015,05,21,05,39,11.90
2015,05,21,05,40,11.90
2015,05,21,05,41,11.90
2015,05,21,05,42,11.90
2015,05,21,05,43,11.90
2015,05,21,05,44,11.90
2015,05,21,05,45,11.90
2015,05,21,05,46,11.90
2015,05,21,05,47,11.90
2015,05,21,05,48,11.90
2015,05,21,05,49,11.90
2015,05,21,05,50,11.90
2015,05,21,05,51,11.90
2015,05,21,05,52,11.90
2015,05,21,05,53,12.00
2015,05,21,05,54,12.00
2015,05,21,05,55,12.00
2015,05,21,05,56,12.00
2015,05,21,05,57,12.00
2015,05,21,05,58,12.00
2015,05,21,05,59,12.10
2015,05,21,06,00,12.10
2015,05,21,06,01,12.10
2015,05,21,06,02,12.10
2015,05,21,06,03,12.10
2015,05,21,06,04,12.10
2015,05,21,06,05,12.10
2015,05,21,06,06,12.10
2015,05,21,06,07,12.20
2015,05,21,06,08,12.20
2015,05,21,06,09,12.20
2015,05,21,06,10,12.20
2015,05,21,06,11,12.20
2015,05,21,06,12,12.20
2015,05,21,06,13,12.20
2015,05,21,06,14,12.30
2015,05,21,06,15,12.30
2015,05,21,06,16,12.30
2015,05,21,06,17,12.30
2015,05,21,06,18,12.30
2015,05,21,06,19,12.30
2015,05,21,06,20,12.40
2015,05,21,06,21,12.40
2015,05,21,06,22,12.40
2015,05,21,06,23,12.40
2015,05,21,06,24,12.40
2015,05,21,06,25,12.40
2015,05,21,06,26,12.50
2015,05,21,06,27,12.50
2015,05,21,06,28,12.50
2015,05,21,06,29,12.60
2015,05,21,06,30,12.60
2015,05,21,06,31,12.60
2015,05,21,06,32,12.60
2015,05,21,06,33,12.60
2015,05,21,06,34,12.70
2015,05,21,06,35,12.70
2015,05,21,06,36,12.70
2015,05,21,06,37,12.70
2015,05,21,06,38,12.70
2015,05,21,06,39,12.80
2015,05,21,06,40,12.80
2015,05,21,06,41,12.80
2015,05,21,06,42,12.80
2015,05,21,06,43,12.80
2015,05,21,06,44,12.90
2015,05,21,06,45,12.90
2015,05,21,06,46,12.90
2015,05,21,06,47,12.90
2015,05,21,06,48,13.00
2015,05,21,06,49,13.00
2015,05,21,06,50,13.10
2015,05,21,06,51,13.10
2015,05,21,06,52,13.10
2015,05,21,06,53,13.10
2015,05,21,06,54,13.10
2015,05,21,06,55,13.20
2015,05,21,06,56,13.20
2015,05,21,06,57,13.20
2015,05,21,06,58,13.20
2015,05,21,06,59,13.20
2015,05,21,07,00,13.30
2015,05,21,07,01,13.30
2015,05,21,07,02,13.30
2015,05,21,07,03,13.30
2015,05,21,07,04,13.30
2015,05,21,07,05,13.40
2015,05,21,07,06,13.40
2015,05,21,07,07,13.40
2015,05,21,07,08,13.40
2015,05,21,07,09,13.50
2015,05,21,07,10,13.50
2015,05,21,07,11,13.50
2015,05,21,07,12,13.60
2015,05,21,07,13,13.60
2015,05,21,07,14,13.60
2015,05,21,07,15,13.60
2015,05,21,07,16,13.70
2015,05,21,07,17,13.70
2015,05,21,07,18,13.70
2015,05,21,07,19,13.70
2015,05,21,07,20,13.80
2015,05,21,07,21,13.80
2015,05,21,07,22,13.80
2015,05,21,07,23,13.80
2015,05,21,07,24,13.90
2015,05,21,07,25,13.90
2015,05,21,07,26,13.90
2015,05,21,07,27,13.90
2015,05,21,07,28,13.90
2015,05,21,07,29,14.00
2015,05,21,07,30,14.00
2015,05,21,07,31,14.00
2015,05,21,07,32,14.10
2015,05,21,07,33,14.10
2015,05,21,07,34,14.10
2015,05,21,07,35,14.10
2015,05,21,07,36,14.20
2015,05,21,07,37,14.20
2015,05,21,07,38,14.20
2015,05,21,07,39,14.30
2015,05,21,07,40,14.30
2015,05,21,07,41,14.20
2015,05,21,07,42,14.10
2015,05,21,07,43,14.00
2015,05,21,07,44,13.90
2015,05,21,07,45,13.80
2015,05,21,07,46,13.70
2015,05,21,07,47,13.70
2015,05,21,07,48,13.60
2015,05,21,07,49,13.60
2015,05,21,07,50,13.50
2015,05,21,07,51,13.50
2015,05,21,07,52,13.40
2015,05,21,07,53,13.50
2015,05,21,07,54,13.50
2015,05,21,07,55,13.50
2015,05,21,07,56,13.50
2015,05,21,07,57,13.50
2015,05,21,07,58,13.40
2015,05,21,07,59,13.40
2015,05,21,08,00,13.50
2015,05,21,08,01,13.50
2015,05,21,08,02,13.60
2015,05,21,08,03,13.60
2015,05,21,08,04,13.50
2015,05,21,08,05,13.50
2015,05,21,08,06,13.50
2015,05,21,08,07,13.50
2015,05,21,08,08,13.50
2015,05,21,08,09,13.40
2015,05,21,08,10,13.40
2015,05,21,08,11,13.40
2015,05,21,08,12,13.30
2015,05,21,08,13,13.30
2015,05,21,08,14,13.30
2015,05,21,08,15,13.20
2015,05,21,08,16,13.20
2015,05,21,08,17,13.20
2015,05,21,08,18,13.20
2015,05,21,08,19,13.20
2015,05,21,08,20,13.20
2015,05,21,08,21,13.20
2015,05,21,08,22,13.20
2015,05,21,08,23,13.20
2015,05,21,08,24,13.20
2015,05,21,08,25,13.20
2015,05,21,08,26,13.20
2015,05,21,08,27,13.20
2015,05,21,08,28,13.20
2015,05,21,08,29,13.20
2015,05,21,08,30,13.20
2015,05,21,08,31,13.20
2015,05,21,08,32,13.20
2015,05,21,08,33,13.20
2015,05,21,08,34,13.20
2015,05,21,08,35,13.20
2015,05,21,08,36,13.20
2015,05,21,08,37,13.20
2015,05,21,08,38,13.20
2015,05,21,08,39,13.20
2015,05,21,08,40,13.20
2015,05,21,08,41,13.20
2015,05,21,08,42,13.20
2015,05,21,08,43,13.20
2015,05,21,08,44,13.30
2015,05,21,08,45,13.30
2015,05,21,08,46,13.30
2015,05,21,08,47,13.30
2015,05,21,08,48,13.30
2015,05,21,08,49,13.30
2015,05,21,08,50,13.30
2015,05,21,08,51,13.30
2015,05,21,08,52,13.40
2015,05,21,08,53,13.40
2015,05,21,08,54,13.40
2015,05,21,08,55,13.40
2015,05,21,08,56,13.40
2015,05,21,08,57,13.40
2015,05,21,08,58,13.40
2015,05,21,08,59,13.40
2015,05,21,09,00,13.50
2015,05,21,09,01,13.50
2015,05,21,09,02,13.50
2015,05,21,09,03,13.60
2015,05,21,09,04,13.60
2015,05,21,09,05,13.60
2015,05,21,09,06,13.70
2015,05,21,09,07,13.70
2015,05,21,09,08,13.70
2015,05,21,09,09,13.70
2015,05,21,09,10,13.70
2015,05,21,09,11,13.70
2015,05,21,09,12,13.70
2015,05,21,09,13,13.70
2015,05,21,09,14,13.70
2015,05,21,09,15,13.70
2015,05,21,09,16,13.70
2015,05,21,09,17,13.80
2015,05,21,09,18,13.80
2015,05,21,09,19,13.80
2015,05,21,09,20,13.80
2015,05,21,09,21,13.80
2015,05,21,09,22,13.80
2015,05,21,09,23,13.90
2015,05,21,09,24,13.90
2015,05,21,09,25,13.90
2015,05,21,09,26,14.00
2015,05,21,09,27,14.00
2015,05,21,09,28,14.10
2015,05,21,09,29,14.10
2015,05,21,09,30,14.10
2015,05,21,09,31,14.10
2015,05,21,09,32,14.20
2015,05,21,09,33,14.20
2015,05,21,09,34,14.20
2015,05,21,09,35,14.20
2015,05,21,09,36,14.20
2015,05,21,09,37,14.20
2015,05,21,09,38,14.30
2015,05,21,09,39,14.30
2015,05,21,09,40,14.30
2015,05,21,09,41,14.40
2015,05,21,09,42,14.40
2015,05,21,09,43,14.40
2015,05,21,09,44,14.40
2015,05,21,09,45,14.40
2015,05,21,09,46,14.40
2015,05,21,09,47,14.50
2015,05,21,09,48,14.60
2015,05,21,09,49,14.60
2015,05,21,09,50,14.70
2015,05,21,09,51,14.70
2015,05,21,09,52,14.70
2015,05,21,09,53,14.80
2015,05,21,09,54,14.70
2015,05,21,09,55,14.70
2015,05,21,09,56,14.70
2015,05,21,09,57,14.70
2015,05,21,09,58,14.70
2015,05,21,09,59,14.70
2015,05,21,10,00,14.60
2015,05,21,10,01,14.70
2015,05,21,10,02,14.70
2015,05,21,10,03,14.80
2015,05,21,10,04,14.80
2015,05,21,10,05,14.80
2015,05,21,10,06,14.80
2015,05,21,10,07,14.80
2015,05,21,10,08,14.80
2015,05,21,10,09,14.80
2015,05,21,10,10,14.90
2015,05,21,10,11,14.90
2015,05,21,10,12,14.90
2015,05,21,10,13,14.90
2015,05,21,10,14,15.00
2015,05,21,10,15,15.00
2015,05,21,10,16,15.10
2015,05,21,10,17,15.10
2015,05,21,10,18,15.20
2015,05,21,10,19,15.30
2015,05,21,10,20,15.30
2015,05,21,10,21,15.40
2015,05,21,10,22,15.40
2015,05,21,10,23,15.40
2015,05,21,10,24,15.40
2015,05,21,10,25,15.40
2015,05,21,10,26,15.40
2015,05,21,10,27,15.40
2015,05,21,10,28,15.50
2015,05,21,10,29,15.50
2015,05,21,10,30,15.50
2015,05,21,10,31,15.50
2015,05,21,10,32,15.50
2015,05,21,10,33,15.60
2015,05,21,10,34,15.60
2015,05,21,10,35,15.60
2015,05,21,10,36,15.60
2015,05,21,10,37,15.60
2015,05,21,10,38,15.70
2015,05,21,10,39,15.70
2015,05,21,10,40,15.70
2015,05,21,10,41,15.80
2015,05,21,10,42,15.80
2015,05,21,10,43,15.90
2015,05,21,10,44,15.90
2015,05,21,10,45,16.00
2015,05,21,10,46,16.00
2015,05,21,10,47,16.00
2015,05,21,10,48,16.10
2015,05,21,10,49,16.20
2015,05,21,10,50,16.30
2015,05,21,10,51,16.30
2015,05,21,10,52,16.40
2015,05,21,10,53,16.40
2015,05,21,10,54,16.50
2015,05,21,10,55,16.50
2015,05,21,10,56,16.50
2015,05,21,10,57,16.50
2015,05,21,10,58,16.60
2015,05,21,10,59,16.60
2015,05,21,11,00,16.60
2015,05,21,11,01,16.70
2015,05,21,11,02,16.70
2015,05,21,11,03,16.70
2015,05,21,11,04,16.80
2015,05,21,11,05,16.90
2015,05,21,11,06,16.90
2015,05,21,11,07,17.00
2015,05,21,11,08,17.10
2015,05,21,11,09,17.20
2015,05,21,11,10,17.20
2015,05,21,11,11,17.30
2015,05,21,11,12,17.30
2015,05,21,11,13,17.20
2015,05,21,11,14,17.20
2015,05,21,11,15,17.20
2015,05,21,11,16,17.20
2015,05,21,11,17,17.30
2015,05,21,11,18,17.30
2015,05,21,11,19,17.30
2015,05,21,11,20,17.30
2015,05,21,11,21,17.30
2015,05,21,11,22,17.30
2015,05,21,11,23,17.30
2015,05,21,11,24,17.20
2015,05,21,11,25,17.20
2015,05,21,11,26,17.20
2015,05,21,11,27,17.20
2015,05,21,11,28,17.20
2015,05,21,11,29,17.20
2015,05,21,11,30,17.20
2015,05,21,11,31,17.20
2015,05,21,11,32,17.20
2015,05,21,11,33,17.20
2015,05,21,11,34,17.10
2015,05,21,11,35,17.10
2015,05,21,11,36,17.10
2015,05,21,11,37,17.10
2015,05,21,11,38,17.10
2015,05,21,11,39,17.10
2015,05,21,11,40,17.10
2015,05,21,11,41,17.10
2015,05,21,11,42,17.10
2015,05,21,11,43,17.10
2015,05,21,11,44,17.10
2015,05,21,11,45,17.10
2015,05,21,11,46,17.10
2015,05,21,11,47,17.10
2015,05,21,11,48,17.20
2015,05,21,11,49,17.20
2015,05,21,11,50,17.30
2015,05,21,11,51,17.30
2015,05,21,11,52,17.30
2015,05,21,11,53,17.30
2015,05,21,11,54,17.30
2015,05,21,11,55,17.40
2015,05,21,11,56,17.40
2015,05,21,11,57,17.40
2015,05,21,11,58,17.50
2015,05,21,11,59,17.50
2015,05,21,12,00,17.50
2015,05,21,12,01,17.40
2015,05,21,12,02,17.40
2015,05,21,12,03,17.40
2015,05,21,12,04,17.30
2015,05,21,12,05,17.30
2015,05,21,12,06,17.20
2015,05,21,12,07,17.20
2015,05,21,12,08,17.20
2015,05,21,12,09,17.30
2015,05,21,12,10,17.30
2015,05,21,12,11,17.30
2015,05,21,12,12,17.40
2015,05,21,12,13,17.50
2015,05,21,12,14,17.60
2015,05,21,12,15,17.60
2015,05,21,12,16,17.60
2015,05,21,12,17,17.60
2015,05,21,12,18,17.60
2015,05,21,12,19,17.60
2015,05,21,12,20,17.70
2015,05,21,12,21,17.70
2015,05,21,12,22,17.80
2015,05,21,12,23,17.80
2015,05,21,12,24,17.90
2015,05,21,12,25,18.00
2015,05,21,12,26,18.10
2015,05,21,12,27,18.20
2015,05,21,12,28,18.20
2015,05,21,12,29,18.20
2015,05,21,12,30,18.20
2015,05,21,12,31,18.20
2015,05,21,12,32,18.10
2015,05,21,12,33,18.20
2015,05,21,12,34,18.20
2015,05,21,12,35,18.30
2015,05,21,12,36,18.40
2015,05,21,12,37,18.40
2015,05,21,12,38,18.40
2015,05,21,12,39,18.40
2015,05,21,12,40,18.40
2015,05,21,12,41,18.30
2015,05,21,12,42,18.30
2015,05,21,12,43,18.30
2015,05,21,12,44,18.40
2015,05,21,12,45,18.40
2015,05,21,12,46,18.50
2015,05,21,12,47,18.60
2015,05,21,12,48,18.60
2015,05,21,12,49,18.70
2015,05,21,12,50,18.80
2015,05,21,12,51,18.90
2015,05,21,12,52,19.00
2015,05,21,12,53,19.10
2015,05,21,12,54,19.20
2015,05,21,12,55,19.20
2015,05,21,12,56,19.30
2015,05,21,12,57,19.30
2015,05,21,12,58,19.40
2015,05,21,12,59,19.40
2015,05,21,13,00,19.40
2015,05,21,13,01,19.50
2015,05,21,13,02,19.50
2015,05,21,13,03,19.50
2015,05,21,13,04,19.60
2015,05,21,13,05,19.60
2015,05,21,13,06,19.70
2015,05,21,13,07,19.70
2015,05,21,13,08,19.80
2015,05,21,13,09,19.80
2015,05,21,13,10,19.80
2015,05,21,13,11,19.80
2015,05,21,13,12,19.80
2015,05,21,13,13,19.80
2015,05,21,13,14,19.70
2015,05,21,13,15,19.70
2015,05,21,13,16,19.70
2015,05,21,13,17,19.70
2015,05,21,13,18,19.80
2015,05,21,13,19,19.90
2015,05,21,13,20,19.90
2015,05,21,13,21,20.00
2015,05,21,13,22,20.00
2015,05,21,13,23,20.00
2015,05,21,13,24,20.00
2015,05,21,13,25,20.10
2015,05,21,13,26,20.10
2015,05,21,13,27,20.10
2015,05,21,13,28,20.20
2015,05,21,13,29,20.20
2015,05,21,13,30,20.30
2015,05,21,13,31,20.30
2015,05,21,13,32,20.40
2015,05,21,13,33,20.40
2015,05,21,13,34,20.40
2015,05,21,13,35,20.40
2015,05,21,13,36,20.40
2015,05,21,13,37,20.40
2015,05,21,13,38,20.30
2015,05,21,13,39,20.30
2015,05,21,13,40,20.30
2015,05,21,13,41,20.30
2015,05,21,13,42,20.40
2015,05,21,13,43,20.40
2015,05,21,13,44,20.40
2015,05,21,13,45,20.30
2015,05,21,13,46,20.30
2015,05,21,13,47,20.40
2015,05,21,13,48,20.40
2015,05,21,13,49,20.50
2015,05,21,13,50,20.60
2015,05,21,13,51,20.80
2015,05,21,13,52,20.90
2015,05,21,13,53,21.00
2015,05,21,13,54,21.20
2015,05,21,13,55,21.30
2015,05,21,13,56,21.30
2015,05,21,13,57,21.50
2015,05,21,13,58,21.60
2015,05,21,13,59,21.70
2015,05,21,14,00,21.70
2015,05,21,14,01,21.80
2015,05,21,14,02,21.80
2015,05,21,14,03,21.90
2015,05,21,14,04,21.90
2015,05,21,14,05,21.90
2015,05,21,14,06,21.90
2015,05,21,14,07,21.90
2015,05,21,14,08,21.90
2015,05,21,14,09,21.90
2015,05,21,14,10,22.00
2015,05,21,14,11,22.00
2015,05,21,14,12,22.00
2015,05,21,14,13,22.10
2015,05,21,14,14,22.20
2015,05,21,14,15,22.30
2015,05,21,14,16,22.30
2015,05,21,14,17,22.30
2015,05,21,14,18,22.40
2015,05,21,14,19,22.40
2015,05,21,14,20,22.50
2015,05,21,14,21,22.50
2015,05,21,14,22,22.60
2015,05,21,14,23,22.60
2015,05,21,14,24,22.50
2015,05,21,14,25,22.40
2015,05,21,14,26,22.40
2015,05,21,14,27,22.30
2015,05,21,14,28,22.30
2015,05,21,14,29,22.30
2015,05,21,14,30,22.30
2015,05,21,14,31,22.20
2015,05,21,14,32,22.20
2015,05,21,14,33,22.10
2015,05,21,14,34,22.10
2015,05,21,14,35,22.00
2015,05,21,14,36,22.00
2015,05,21,14,37,21.90
2015,05,21,14,38,21.90
2015,05,21,14,39,21.90
2015,05,21,14,40,21.90
2015,05,21,14,41,21.90
2015,05,21,14,42,21.90
2015,05,21,14,43,21.90
2015,05,21,14,44,21.90
2015,05,21,14,45,21.90
2015,05,21,14,46,21.90
2015,05,21,14,47,21.80
2015,05,21,14,48,21.70
2015,05,21,14,49,21.60
2015,05,21,14,50,21.60
2015,05,21,14,51,21.50
2015,05,21,14,52,21.40
2015,05,21,14,53,21.30
2015,05,21,14,54,21.20
2015,05,21,14,55,21.20
2015,05,21,14,56,21.10
2015,05,21,14,57,21.10
2015,05,21,14,58,21.10
2015,05,21,14,59,21.10
2015,05,21,15,00,21.10
2015,05,21,15,01,21.10
2015,05,21,15,02,21.10
2015,05,21,15,03,21.00
2015,05,21,15,04,21.00
2015,05,21,15,05,20.90
2015,05,21,15,06,20.80
2015,05,21,15,07,20.80
2015,05,21,15,08,20.80
2015,05,21,15,09,20.80
2015,05,21,15,10,20.80
2015,05,21,15,11,20.80
2015,05,21,15,12,20.80
2015,05,21,15,13,20.90
2015,05,21,15,14,20.90
2015,05,21,15,15,20.90
2015,05,21,15,16,20.80
2015,05,21,15,17,20.80
2015,05,21,15,18,20.80
2015,05,21,15,19,20.80
2015,05,21,15,20,20.80
2015,05,21,15,21,20.70
2015,05,21,15,22,20.70
2015,05,21,15,23,20.60
2015,05,21,15,24,20.50
2015,05,21,15,25,20.50
2015,05,21,15,26,20.40
2015,05,21,15,27,20.40
2015,05,21,15,28,20.40
2015,05,21,15,29,20.40
2015,05,21,15,30,20.50
2015,05,21,15,31,20.50
2015,05,21,15,32,20.50
2015,05,21,15,33,20.50
2015,05,21,15,34,20.50
2015,05,21,15,35,20.60
2015,05,21,15,36,20.60
2015,05,21,15,37,20.60
2015,05,21,15,38,20.70
2015,05,21,15,39,20.80
2015,05,21,15,40,20.80
2015,05,21,15,41,20.90
2015,05,21,15,42,21.00
2015,05,21,15,43,21.10
2015,05,21,15,44,21.20
2015,05,21,15,45,21.30
2015,05,21,15,46,21.40
2015,05,21,15,47,21.50
2015,05,21,15,48,21.70
2015,05,21,15,49,21.80
2015,05,21,15,50,22.00
2015,05,21,15,51,22.20
2015,05,21,15,52,22.30
2015,05,21,15,53,22.50
2015,05,21,15,54,22.50
2015,05,21,15,55,22.60
2015,05,21,15,56,22.60
2015,05,21,15,57,22.60
2015,05,21,15,58,22.50
2015,05,21,15,59,22.40
2015,05,21,16,00,22.30
2015,05,21,16,01,22.20
2015,05,21,16,02,22.10
2015,05,21,16,03,22.00
2015,05,21,16,04,21.90
2015,05,21,16,05,21.90
2015,05,21,16,06,21.80
2015,05,21,16,07,21.70
2015,05,21,16,08,21.50
2015,05,21,16,09,21.40
2015,05,21,16,10,21.30
2015,05,21,16,11,21.20
2015,05,21,16,12,21.10
2015,05,21,16,13,21.00
2015,05,21,16,14,20.90
2015,05,21,16,15,20.90
2015,05,21,16,16,20.80
2015,05,21,16,17,20.80
2015,05,21,16,18,20.80
2015,05,21,16,19,20.70
2015,05,21,16,20,20.70
2015,05,21,16,21,20.70
2015,05,21,16,22,20.70
2015,05,21,16,23,20.60
2015,05,21,16,24,20.60
2015,05,21,16,25,20.50
2015,05,21,16,26,20.50
2015,05,21,16,27,20.40
2015,05,21,16,28,20.40
2015,05,21,16,29,20.40
2015,05,21,16,30,20.40
2015,05,21,16,31,20.40
2015,05,21,16,32,20.40
2015,05,21,16,33,20.40
2015,05,21,16,34,20.40
2015,05,21,16,35,20.40
2015,05,21,16,36,20.40
2015,05,21,16,37,20.40
2015,05,21,16,38,20.40
2015,05,21,16,39,20.40
2015,05,21,16,40,20.40
2015,05,21,16,41,20.40
2015,05,21,16,42,20.40
2015,05,21,16,43,20.50
2015,05,21,16,44,20.50
2015,05,21,16,45,20.50
2015,05,21,16,46,20.60
2015,05,21,16,47,20.60
2015,05,21,16,48,20.60
2015,05,21,16,49,20.60
2015,05,21,16,50,20.60
2015,05,21,16,51,20.60
2015,05,21,16,52,20.60
2015,05,21,16,53,20.60
2015,05,21,16,54,20.60
2015,05,21,16,55,20.60
2015,05,21,16,56,20.60
2015,05,21,16,57,20.50
2015,05,21,16,58,20.50
2015,05,21,16,59,20.40
2015,05,21,17,00,20.40
2015,05,21,17,01,20.40
2015,05,21,17,02,20.40
2015,05,21,17,03,20.40
2015,05,21,17,04,20.50
2015,05,21,17,05,20.60
2015,05,21,17,06,20.70
2015,05,21,17,07,20.80
2015,05,21,17,08,20.90
2015,05,21,17,09,21.00
2015,05,21,17,10,21.10
2015,05,21,17,11,21.20
2015,05,21,17,12,21.30
2015,05,21,17,13,21.40
2015,05,21,17,14,21.40
2015,05,21,17,15,21.50
2015,05,21,17,16,21.50
2015,05,21,17,17,21.60
2015,05,21,17,18,21.60
2015,05,21,17,19,21.60
2015,05,21,17,20,21.60
2015,05,21,17,21,21.60
2015,05,21,17,22,21.60
2015,05,21,17,23,21.60
2015,05,21,17,24,21.60
2015,05,21,17,25,21.60
2015,05,21,17,26,21.70
2015,05,21,17,27,21.70
2015,05,21,17,28,21.70
2015,05,21,17,29,21.80
2015,05,21,17,30,21.80
2015,05,21,17,31,21.80
2015,05,21,17,32,21.80
2015,05,21,17,33,21.80
2015,05,21,17,34,21.80
2015,05,21,17,35,21.90
2015,05,21,17,36,21.90
2015,05,21,17,37,22.00
2015,05,21,17,38,22.10
2015,05,21,17,39,22.20
2015,05,21,17,40,22.30
2015,05,21,17,41,22.40
2015,05,21,17,42,22.60
2015,05,21,17,43,22.70
2015,05,21,17,44,22.80
2015,05,21,17,45,22.90
2015,05,21,17,46,23.10
2015,05,21,17,47,23.20
2015,05,21,17,48,23.30
2015,05,21,17,49,23.50
2015,05,21,17,50,23.60
2015,05,21,17,51,23.70
2015,05,21,17,52,23.80
2015,05,21,17,53,23.90
2015,05,21,17,54,23.90
2015,05,21,17,55,23.90
2015,05,21,17,56,23.80
2015,05,21,17,57,23.80
2015,05,21,17,58,23.70
2015,05,21,17,59,23.70
2015,05,21,18,00,23.70
2015,05,21,18,01,23.60
2015,05,21,18,02,23.50
2015,05,21,18,03,23.40
2015,05,21,18,04,23.30
2015,05,21,18,05,23.20
2015,05,21,18,06,23.10
2015,05,21,18,07,23.00
2015,05,21,18,08,22.90
2015,05,21,18,09,22.90
2015,05,21,18,10,22.80
2015,05,21,18,11,22.70
2015,05,21,18,12,22.50
2015,05,21,18,13,22.20
2015,05,21,18,14,21.90
2015,05,21,18,15,21.60
2015,05,21,18,16,21.20
2015,05,21,18,17,21.00
2015,05,21,18,18,20.70